Location: Ariel
(45.9570°N, 122.5700°W)
Time: 09:35:55
(UTC-07:00)

Vanguard 3 - Pass Details

Date: 03 September 2019
Orbit: 508 x 3263 km, 33.4° (Epoch: 14 September)

Event Time Altitude Azimuth Distance (km) Brightness Sun altitude
Rises 18:16:46 0° 267° (W) 5,874 13.5 14.4°
Reaches altitude 10° 18:21:54 10° 258° (WSW) 4,360 13.4 13.5°
Maximum altitude 18:30:34 28° 206° (SSW) 2,293 9.9 12.0°
Drops below altitude 10° 18:36:10 10° 150° (SSE) 2,726 9.6 11.1°
Sets 18:38:36 0° 137° (SE) 3,392 9.9 10.6°
